Regional Weather Roundup
Issued by NWS Mt. Holly, NJ

Home | Current Version | Previous Version | Text Only | Print | Product List | Glossary On
Versions: 1 2 3 4 5 6 7 8 9 10 11 12 13 14 15 16 17 18 19 20 21 22 23 24 25 26 27 28 29 30 31 32 33 34 35 36 37 38 39 40 41 42 43 44 45 46 47 48 49 50
000
ASUS41 KPHI 231111
RWRPHI

REGIONAL WEATHER ROUNDUP
NATIONAL WEATHER SERVICE MOUNT HOLLY NJ
700 AM EDT SAT MAY 23 2015

NOTE:  "FAIR" INDICATES FEW OR NO CLOUDS BELOW 12,000 FEET WITH NO
SIGNIFICANT WEATHER AND/OR OBSTRUCTIONS TO VISIBILITY.

 * = STATION DOES NOT REPORT PRECIPITATION (E.G. RAIN, SNOW, ETC.)
        OR FOG.

NJZ015>026-231200-
SOUTHERN NEW JERSEY

CITY           SKY/WX    TMP DP  RH WIND       PRES   REMARKS
POMONA         SUNNY     50  37  61 N5        30.38R
RIO GRANDE*    SUNNY     54  34  47 N7        30.39R
MILLVILLE      FAIR      49  41  74 CALM      30.39R
WRIGHTSTOWN    SUNNY     49  30  48 N8        30.35R
MOUNT HOLLY    SUNNY     50  30  46 N6        30.38R
TRENTON        SUNNY     48  28  46 NW9       30.38R

$$
NJZ001>014-231200-
NORTHERN NEW JERSEY

CITY           SKY/WX    TMP DP  RH WIND       PRES   REMARKS
SUSSEX         SUNNY     44  29  55 CALM      30.39R
ANDOVER*         N/A     44  30  57 N9        30.37R
MORRISTOWN     SUNNY     46  30  53 N9        30.37R
NEWARK         SUNNY     50  28  42 NW14      30.36R
TETERBORO      SUNNY     48  27  44 NW8G20    30.35R
CALDWELL       SUNNY     47  28  47 NW6       30.37R
SOMERVILLE     SUNNY     47  31  53 NW5       30.36R
ALLAIRE*       SUNNY     48  27  43 NW12      30.36R
TOMS RIVER*    SUNNY    N/A N/A N/A NW8       30.36R

$$
PAZ043-044-047-054-055-060>062-066>071-231200-
EASTERN PENNSYLVANIA

CITY           SKY/WX    TMP DP  RH WIND       PRES   REMARKS
PHILADELPHIA   MOSUNNY   52  27  38 N10       30.40R
NORTH PHILA    SUNNY     51  26  37 N15       30.39R
BLUE BELL      SUNNY     50  30  46 CALM      30.38R
DOYLESTOWN     SUNNY     45  32  60 N5        30.39R
QUAKERTOWN*    SUNNY     46  28  49 N6        30.40R
POTTSTOWN      SUNNY     47  29  49 N12       30.40R
LANCASTER      SUNNY     47  29  49 N7        30.40R
COATESVILLE    SUNNY     48  27  43 N6        30.40R
READING        SUNNY     48  29  47 N5        30.40R
ALLENTOWN      SUNNY     47  28  47 NW3       30.40R
MOUNT POCONO   SUNNY     37  25  61 NW13      30.32R WCI  29
HAZLETON       SUNNY     41  28  60 NW8       30.39R
WILKES BARRE   SUNNY     43  27  53 N7        30.38R

$$
DEZALL-MDZ008-012-015-019-020-231200-
DELAWARE AND EASTERN MARYLAND

CITY           SKY/WX    TMP DP  RH WIND       PRES   REMARKS
WILMINGTON     SUNNY     52  35  52 CALM      30.40R
DOVER          SUNNY     53  36  53 NW9       30.36R
GEORGETOWN     SUNNY     52  37  56 N5        30.39R
EASTON         SUNNY     55  43  62 N3        30.43R
PATUXENT       MOSUNNY   57  31  37 NW8       30.39R
OCEAN CITY     SUNNY     55  36  48 N7        30.37R
WALLOPS ISLAND SUNNY     56  39  53 CALM      30.39R
SALISBURY      SUNNY     54  36  50 N5        30.38R

$$
PAZ001-021-NYZ056-072-MDZ011-DCZ001-231200-
OTHER NEARBY LOCATIONS

CITY           SKY/WX    TMP DP  RH WIND       PRES   REMARKS
HARRISBURG     MOSUNNY   50  23  34 N6        30.41R
STATE COLLEGE  SUNNY     37  27  65 CALM      30.42R
WILLIAMSPORT   SUNNY     41  31  67 CALM      30.41R
BINGHAMTON     SUNNY     35  28  75 W5        30.36R WCI  31
NEW YORK CITY  SUNNY     49  27  42 VRB3      30.38R
BALTIMORE      PTSUNNY   49  35  58 CALM      30.41R
WASHINGTON DC  PTSUNNY   55  33  43 N9        30.42R

$$


USA.gov is the U.S. government's official web portal to all federal, state and local government web resources and services.